This demonstration page uses our WeatherBlox Daily Observations layout. Learn more.

Left ArrowRight Arrow

36.17497, -115.13722

Hourly Observations for January 29, 2017

Temp ( °F °C ) Dew Point ( °F °C ) Humidity (%) Winds ( mph kmh ) Pressure ( in mb ) Visibility ( mi km ) Precip ( " mm )
12:53 am 00:53 Clear 44 6.7 21 -6.1 40 40 NW 13 20 30.57 1035 10 16 N/A
1:53 am 01:53 Clear 41 5 23 -5 49 49 NE 5 7 30.59 1036 10 16 N/A
2:53 am 02:53 Clear 43 6.1 22 -5.6 43 43 VRB 6 9 30.57 1035 10 16 N/A
3:53 am 03:53 Clear 42 5.6 21 -6.1 43 43 N N/A 30.57 1035 10 16 N/A
4:53 am 04:53 Clear 43 6.1 21 -6.1 42 42 WNW 5 7 30.57 1035 10 16 N/A
5:53 am 05:53 Clear 39 3.9 22 -5.6 50 50 NW 7 11 30.60 1036 10 16 N/A
6:53 am 06:53 Sunny 37 2.8 24 -4.4 59 59 N N/A 30.62 1037 10 16 N/A
7:53 am 07:53 Sunny 41 5 24 -4.4 51 51 WNW 5 7 30.62 1037 10 16 N/A
8:53 am 08:53 Sunny 48 8.9 22 -5.6 36 36 N 3 6 30.62 1037 10 16 N/A
9:53 am 09:53 Sunny 52 11.1 18 -7.8 26 26 N N/A 30.62 1037 10 16 N/A
10:53 am 10:53 Sunny 53 11.7 18 -7.8 25 25 SSE 3 6 30.60 1036 10 16 N/A
11:53 am 11:53 Sunny 56 13.3 18 -7.8 22 22 N N/A 30.55 1035 10 16 N/A
12:53 pm 12:53 Sunny 57 13.9 18 -7.8 22 22 E 3 6 30.52 1033 10 16 N/A
1:53 pm 13:53 Sunny 59 15 18 -7.8 20 20 N N/A 30.48 1032 10 16 N/A
2:53 pm 14:53 Sunny 61 16.1 18 -7.8 19 19 N N/A 30.46 1032 10 16 N/A
3:53 pm 15:53 Sunny 61 16.1 19 -7.2 20 20 N N/A 30.44 1031 10 16 N/A
4:53 pm 16:53 Sunny 60 15.6 20 -6.7 21 21 N N/A 30.43 1030 10 16 N/A
5:53 pm 17:53 Clear 56 13.3 23 -5 28 28 WSW 3 6 30.44 1031 10 16 N/A
6:53 pm 18:53 Clear 52 11.1 26 -3.3 37 37 NW 5 7 30.45 1031 10 16 N/A
7:53 pm 19:53 Clear 50 10 28 -2.2 43 43 WNW 6 9 30.44 1031 10 16 N/A
8:53 pm 20:53 Clear 48 8.9 28 -2.2 46 46 N N/A 30.43 1031 10 16 N/A
9:53 pm 21:53 Clear 46 7.8 28 -2.2 50 50 WNW 5 7 30.43 1031 10 16 N/A
10:53 pm 22:53 Clear 46 7.8 28 -2.2 50 50 NW 6 9 30.42 1030 10 16 N/A
11:53 pm 23:53 Clear 44 6.7 28 -2.2 53 53 WNW 3 6 30.40 1030 10 16 N/A

Powered by AerisWeather